Change the Weather History Date:

Sunday, November 3, 2013

  Actual Average Record
Temperature  
Mean Temperature 41 °F 48 °F  
Max Temperature 48 °F 56 °F 75 °F (2003)
Min Temperature 33 °F 39 °F 22 °F (1951)
Degree Days  
Heating Degree Days 24 18  
Month to date heating degree days 45 52  
Since 1 July heating degree days 485 526  
Cooling Degree Days 0    
Month to date cooling degree days 0  
Year to date cooling degree days 740  
Moisture  
Dew Point 34 °F    
Average Humidity 73    
Maximum Humidity 96    
Minimum Humidity 49    
Precipitation  
Precipitation T in 0.10 in 0.55 in (1985)
Month to date precipitation 0.32 0.32  
Sea Level Pressure  
Sea Level Pressure 30.24 in    
Wind  
Wind Speed 6 mph (NNW)    
Max Wind Speed 13 mph    
Max Gust Speed 16 mph    
Visibility 10 miles    
Events Rain    
T = Trace of Precipitation, MM = Missing Value Source: NWS Daily Summary

Daily Weather History Graph

Daily Weather History Graph

Search for Another Location

Airport or City:

Trip Planner

Search our weather history database for the weather conditions in past years. The results will help you decide how hot, cold, wet, or windy it might be!

Date:

Astronomy

Nov. 03, 2013 Rise Set
Actual Time 6:54 AM EST 5:17 PM EST
Civil Twilight 6:26 AM EST 5:45 PM EST
Nautical Twilight 5:53 AM EST 6:17 PM EST
Astronomical Twilight 5:22 AM EST 6:49 PM EST
Moon 6:56 AM EST (11/3) 5:31 PM EST (11/3)
Length of Visible Light 11h 19m
Length of Day
10h 22m
New Moon, 0% of the Moon is Illuminated
Nov 3
New Moon
Nov 10
First Quarter
Nov 17
Full
Nov 25
Last Quarter
Dec 2
New

Hourly Weather History & Observations

Time (EST) Temp. Windchill Dew Point Humidity Pressure Visibility Wind Dir Wind Speed Gust Speed Precip Events Conditions
12:45 AM 42.8 °F 38.6 °F 41.0 °F 93% 29.99 in 9.0 mi WNW 6.9 mph - 0.00 in   Overcast
12:53 AM 43.0 °F 38.8 °F 41.0 °F 93% 30.02 in 10.0 mi WNW 6.9 mph - 0.00 in   Overcast
1:11 AM 42.8 °F 38.0 °F 39.2 °F 87% 30.00 in 10.0 mi NW 8.1 mph - N/A   Overcast
1:53 AM 43.0 °F 38.8 °F 39.9 °F 89% 30.04 in 10.0 mi NW 6.9 mph - 0.00 in Rain Light Rain
1:06 AM 42.8 °F 38.0 °F 39.2 °F 87% 30.01 in 10.0 mi NW 8.1 mph - 0.00 in   Overcast
1:53 AM 42.1 °F 36.6 °F 39.0 °F 89% 30.06 in 10.0 mi NW 9.2 mph - 0.00 in   Overcast
2:45 AM 42.8 °F 38.0 °F 37.4 °F 81% 30.06 in 10.0 mi NNW 8.1 mph - N/A   Overcast
2:53 AM 42.1 °F 37.1 °F 37.9 °F 85% 30.09 in 10.0 mi NNW 8.1 mph - N/A   Overcast
3:19 AM 42.8 °F 40.1 °F 37.4 °F 81% 30.07 in 10.0 mi NW 4.6 mph - N/A   Overcast
3:30 AM 41.0 °F 36.4 °F 39.2 °F 93% 30.07 in 10.0 mi NNW 6.9 mph - N/A   Overcast
3:53 AM 41.0 °F 37.1 °F 37.9 °F 89% 30.11 in 10.0 mi North 5.8 mph - N/A   Overcast
4:53 AM 39.9 °F 35.8 °F 37.0 °F 89% 30.14 in 10.0 mi NNW 5.8 mph - N/A   Mostly Cloudy
5:12 AM 39.2 °F 34.2 °F 37.4 °F 93% 30.12 in 10.0 mi NNW 6.9 mph - N/A   Scattered Clouds
5:53 AM 39.0 °F 36.8 °F 37.0 °F 93% 30.18 in 10.0 mi NNW 3.5 mph - N/A   Mostly Cloudy
6:29 AM 39.2 °F 33.0 °F 37.4 °F 93% 30.18 in 10.0 mi NNW 9.2 mph - N/A   Overcast
6:46 AM 39.2 °F 35.0 °F 37.4 °F 93% 30.19 in 10.0 mi North 5.8 mph - N/A   Overcast
6:53 AM 39.0 °F 33.4 °F 36.0 °F 89% 30.22 in 10.0 mi NNW 8.1 mph - N/A   Mostly Cloudy
7:53 AM 39.9 °F 37.8 °F 35.1 °F 83% 30.26 in 10.0 mi North 3.5 mph - N/A   Scattered Clouds
8:53 AM 42.1 °F 38.4 °F 34.0 °F 73% 30.30 in 10.0 mi NNW 5.8 mph - N/A   Scattered Clouds
9:03 AM 41.0 °F 36.4 °F 33.8 °F 76% 30.27 in 10.0 mi North 6.9 mph - N/A   Mostly Cloudy
9:10 AM 39.2 °F 34.2 °F 33.8 °F 81% 30.27 in 10.0 mi North 6.9 mph - N/A   Scattered Clouds
9:37 AM 41.0 °F 37.1 °F 33.8 °F 76% 30.27 in 10.0 mi North 5.8 mph - N/A   Mostly Cloudy
9:53 AM 41.0 °F 35.8 °F 34.0 °F 76% 30.31 in 10.0 mi North 8.1 mph - N/A   Overcast
10:53 AM 43.0 °F 39.5 °F 33.1 °F 68% 30.33 in 10.0 mi North 5.8 mph - N/A   Scattered Clouds
11:02 AM 42.8 °F 37.5 °F 32.0 °F 66% 30.31 in 10.0 mi North 9.2 mph - N/A   Mostly Cloudy
11:11 AM 42.8 °F 37.5 °F 32.0 °F 66% 30.31 in 10.0 mi North 9.2 mph - N/A   Scattered Clouds
11:40 AM 44.6 °F 41.4 °F 32.0 °F 61% 30.31 in 10.0 mi North 5.8 mph - N/A   Mostly Cloudy
11:53 AM 45.0 °F - 33.1 °F 63% 30.34 in 10.0 mi Calm Calm - N/A   Mostly Cloudy
12:20 PM 46.4 °F 43.5 °F 33.8 °F 62% 30.30 in 10.0 mi NNW 5.8 mph - N/A   Scattered Clouds
12:53 PM 45.0 °F 41.8 °F 30.9 °F 58% 30.33 in 10.0 mi WNW 5.8 mph - N/A   Clear
1:53 PM 46.9 °F - 32.0 °F 56% 30.33 in 10.0 mi NW 4.6 mph - N/A   Clear
2:53 PM 48.0 °F - 30.9 °F 52% 30.34 in 10.0 mi Variable 3.5 mph - N/A   Clear
3:53 PM 48.0 °F - 30.0 °F 50% 30.34 in 10.0 mi NNW 4.6 mph - N/A   Clear
4:53 PM 46.0 °F 43.1 °F 28.0 °F 50% 30.35 in 10.0 mi NW 5.8 mph - N/A   Clear
5:53 PM 44.1 °F 41.5 °F 28.0 °F 53% 30.38 in 10.0 mi North 4.6 mph - N/A   Clear
6:53 PM 42.1 °F 39.2 °F 28.0 °F 58% 30.40 in 10.0 mi North 4.6 mph - N/A   Clear
7:53 PM 41.0 °F 35.8 °F 27.0 °F 57% 30.42 in 10.0 mi NNE 8.1 mph - N/A   Clear
8:53 PM 37.9 °F 31.5 °F 27.0 °F 65% 30.45 in 10.0 mi NNE 9.2 mph - N/A   Clear
9:53 PM 36.0 °F 29.0 °F 27.0 °F 70% 30.46 in 10.0 mi NE 9.2 mph - N/A   Clear
10:53 PM 35.1 °F 27.4 °F 26.1 °F 70% 30.47 in 10.0 mi ENE 10.4 mph - N/A   Clear